Location: Kellogg
(38.0159°N, 90.0546°W)
Time: 07:03:59
(UTC+00:00)

Vanguard 1 Rocket - Pass Details

Date: 17 September 2024
Orbit: 650 x 4218 km, 34.3° (Epoch: 05 October)

Event Time Altitude Azimuth Distance (km) Brightness Sun altitude
Rises 17:36:29 0° 283° (WNW) 8,355 12.2 53.6°
Reaches altitude 10° 17:45:15 10° 269° (W) 7,424 12.1 53.8°
Maximum altitude 17:59:36 19° 235° (SW) 6,324 12.3 53.8°
Drops below altitude 10° 18:12:01 10° 198° (SSW) 6,233 12.4 53.6°
Sets 18:18:31 0° 181° (S) 6,632 12.4 53.4°
